Year,Month,Day,Hour,Minute,Value (Times are PST for temperature in C)
2010,07,11,00,00,16.90
2010,07,11,00,01,16.80
2010,07,11,00,02,16.80
2010,07,11,00,03,16.80
2010,07,11,00,04,16.80
2010,07,11,00,05,16.80
2010,07,11,00,06,16.70
2010,07,11,00,07,16.70
2010,07,11,00,08,16.70
2010,07,11,00,09,16.70
2010,07,11,00,10,16.70
2010,07,11,00,11,16.70
2010,07,11,00,12,16.70
2010,07,11,00,13,16.60
2010,07,11,00,14,16.60
2010,07,11,00,15,16.60
2010,07,11,00,16,16.60
2010,07,11,00,17,16.50
2010,07,11,00,18,16.50
2010,07,11,00,19,16.50
2010,07,11,00,20,16.40
2010,07,11,00,21,16.40
2010,07,11,00,22,16.40
2010,07,11,00,23,16.30
2010,07,11,00,24,16.30
2010,07,11,00,25,16.30
2010,07,11,00,26,16.30
2010,07,11,00,27,16.30
2010,07,11,00,28,16.30
2010,07,11,00,29,16.20
2010,07,11,00,30,16.20
2010,07,11,00,31,16.20
2010,07,11,00,32,16.20
2010,07,11,00,33,16.20
2010,07,11,00,34,16.20
2010,07,11,00,35,16.20
2010,07,11,00,36,16.20
2010,07,11,00,37,16.20
2010,07,11,00,38,16.20
2010,07,11,00,39,16.20
2010,07,11,00,40,16.10
2010,07,11,00,41,16.10
2010,07,11,00,42,16.10
2010,07,11,00,43,16.10
2010,07,11,00,44,16.10
2010,07,11,00,45,16.10
2010,07,11,00,46,16.10
2010,07,11,00,47,16.10
2010,07,11,00,48,16.10
2010,07,11,00,49,16.00
2010,07,11,00,50,16.00
2010,07,11,00,51,16.00
2010,07,11,00,52,16.00
2010,07,11,00,53,16.00
2010,07,11,00,54,16.00
2010,07,11,00,55,15.90
2010,07,11,00,56,15.90
2010,07,11,00,57,15.90
2010,07,11,00,58,15.90
2010,07,11,00,59,15.90
2010,07,11,01,00,15.90
2010,07,11,01,01,15.90
2010,07,11,01,02,15.90
2010,07,11,01,03,15.90
2010,07,11,01,04,15.90
2010,07,11,01,05,15.90
2010,07,11,01,06,15.90
2010,07,11,01,07,15.90
2010,07,11,01,08,15.90
2010,07,11,01,09,15.90
2010,07,11,01,10,15.90
2010,07,11,01,11,15.90
2010,07,11,01,12,15.90
2010,07,11,01,13,15.90
2010,07,11,01,14,15.90
2010,07,11,01,15,15.90
2010,07,11,01,16,15.90
2010,07,11,01,17,15.80
2010,07,11,01,18,15.80
2010,07,11,01,19,15.80
2010,07,11,01,20,15.80
2010,07,11,01,21,15.80
2010,07,11,01,22,15.80
2010,07,11,01,23,15.80
2010,07,11,01,24,15.70
2010,07,11,01,25,15.70
2010,07,11,01,26,15.70
2010,07,11,01,27,15.70
2010,07,11,01,28,15.70
2010,07,11,01,29,15.70
2010,07,11,01,30,15.70
2010,07,11,01,31,15.70
2010,07,11,01,32,15.70
2010,07,11,01,33,15.70
2010,07,11,01,34,15.70
2010,07,11,01,35,15.70
2010,07,11,01,36,15.70
2010,07,11,01,37,15.70
2010,07,11,01,38,15.60
2010,07,11,01,39,15.60
2010,07,11,01,40,15.60
2010,07,11,01,41,15.60
2010,07,11,01,42,15.60
2010,07,11,01,43,15.60
2010,07,11,01,44,15.60
2010,07,11,01,45,15.50
2010,07,11,01,46,15.50
2010,07,11,01,47,15.40
2010,07,11,01,48,15.40
2010,07,11,01,49,15.40
2010,07,11,01,50,15.40
2010,07,11,01,51,15.30
2010,07,11,01,52,15.30
2010,07,11,01,53,15.30
2010,07,11,01,54,15.30
2010,07,11,01,55,15.30
2010,07,11,01,56,15.30
2010,07,11,01,57,15.30
2010,07,11,01,58,15.30
2010,07,11,01,59,15.30
2010,07,11,02,00,15.30
2010,07,11,02,01,15.30
2010,07,11,02,02,15.30
2010,07,11,02,03,15.30
2010,07,11,02,04,15.20
2010,07,11,02,05,15.20
2010,07,11,02,06,15.20
2010,07,11,02,07,15.20
2010,07,11,02,08,15.20
2010,07,11,02,09,15.20
2010,07,11,02,10,15.20
2010,07,11,02,11,15.20
2010,07,11,02,12,15.20
2010,07,11,02,13,15.20
2010,07,11,02,14,15.20
2010,07,11,02,15,15.20
2010,07,11,02,16,15.20
2010,07,11,02,17,15.20
2010,07,11,02,18,15.20
2010,07,11,02,19,15.20
2010,07,11,02,20,15.10
2010,07,11,02,21,15.10
2010,07,11,02,22,15.10
2010,07,11,02,23,15.10
2010,07,11,02,24,15.10
2010,07,11,02,25,15.10
2010,07,11,02,26,15.10
2010,07,11,02,27,15.10
2010,07,11,02,28,15.10
2010,07,11,02,29,15.00
2010,07,11,02,30,15.00
2010,07,11,02,31,15.00
2010,07,11,02,32,15.00
2010,07,11,02,33,14.90
2010,07,11,02,34,14.90
2010,07,11,02,35,14.90
2010,07,11,02,36,14.90
2010,07,11,02,37,14.90
2010,07,11,02,38,14.90
2010,07,11,02,39,14.90
2010,07,11,02,40,14.80
2010,07,11,02,41,14.80
2010,07,11,02,42,14.80
2010,07,11,02,43,14.80
2010,07,11,02,44,14.80
2010,07,11,02,45,14.80
2010,07,11,02,46,14.80
2010,07,11,02,47,14.80
2010,07,11,02,48,14.80
2010,07,11,02,49,14.80
2010,07,11,02,50,14.80
2010,07,11,02,51,14.70
2010,07,11,02,52,14.70
2010,07,11,02,53,14.70
2010,07,11,02,54,14.70
2010,07,11,02,55,14.70
2010,07,11,02,56,14.70
2010,07,11,02,57,14.70
2010,07,11,02,58,14.70
2010,07,11,02,59,14.70
2010,07,11,03,00,14.70
2010,07,11,03,01,14.60
2010,07,11,03,02,14.60
2010,07,11,03,03,14.60
2010,07,11,03,04,14.60
2010,07,11,03,05,14.60
2010,07,11,03,06,14.60
2010,07,11,03,07,14.60
2010,07,11,03,08,14.60
2010,07,11,03,09,14.60
2010,07,11,03,10,14.60
2010,07,11,03,11,14.50
2010,07,11,03,12,14.50
2010,07,11,03,13,14.50
2010,07,11,03,14,14.50
2010,07,11,03,15,14.50
2010,07,11,03,16,14.50
2010,07,11,03,17,14.50
2010,07,11,03,18,14.50
2010,07,11,03,19,14.50
2010,07,11,03,20,14.50
2010,07,11,03,21,14.50
2010,07,11,03,22,14.50
2010,07,11,03,23,14.50
2010,07,11,03,24,14.40
2010,07,11,03,25,14.40
2010,07,11,03,26,14.40
2010,07,11,03,27,14.40
2010,07,11,03,28,14.40
2010,07,11,03,29,14.40
2010,07,11,03,30,14.40
2010,07,11,03,31,14.40
2010,07,11,03,32,14.40
2010,07,11,03,33,14.40
2010,07,11,03,34,14.40
2010,07,11,03,35,14.40
2010,07,11,03,36,14.40
2010,07,11,03,37,14.40
2010,07,11,03,38,14.40
2010,07,11,03,39,14.40
2010,07,11,03,40,14.40
2010,07,11,03,41,14.40
2010,07,11,03,42,14.40
2010,07,11,03,43,14.40
2010,07,11,03,44,14.40
2010,07,11,03,45,14.30
2010,07,11,03,46,14.30
2010,07,11,03,47,14.30
2010,07,11,03,48,14.30
2010,07,11,03,49,14.30
2010,07,11,03,50,14.30
2010,07,11,03,51,14.30
2010,07,11,03,52,14.30
2010,07,11,03,53,14.30
2010,07,11,03,54,14.30
2010,07,11,03,55,14.30
2010,07,11,03,56,14.30
2010,07,11,03,57,14.20
2010,07,11,03,58,14.20
2010,07,11,03,59,14.20
2010,07,11,04,00,14.20
2010,07,11,04,01,14.20
2010,07,11,04,02,14.20
2010,07,11,04,03,14.20
2010,07,11,04,04,14.20
2010,07,11,04,05,14.20
2010,07,11,04,06,14.20
2010,07,11,04,07,14.20
2010,07,11,04,08,14.20
2010,07,11,04,09,14.20
2010,07,11,04,10,14.20
2010,07,11,04,11,14.20
2010,07,11,04,12,14.20
2010,07,11,04,13,14.20
2010,07,11,04,14,14.10
2010,07,11,04,15,14.10
2010,07,11,04,16,14.10
2010,07,11,04,17,14.10
2010,07,11,04,18,14.10
2010,07,11,04,19,14.10
2010,07,11,04,20,14.10
2010,07,11,04,21,14.00
2010,07,11,04,22,14.00
2010,07,11,04,23,14.00
2010,07,11,04,24,14.00
2010,07,11,04,25,14.00
2010,07,11,04,26,14.00
2010,07,11,04,27,14.00
2010,07,11,04,28,13.90
2010,07,11,04,29,13.90
2010,07,11,04,30,13.90
2010,07,11,04,31,13.90
2010,07,11,04,32,13.90
2010,07,11,04,33,13.90
2010,07,11,04,34,13.90
2010,07,11,04,35,13.90
2010,07,11,04,36,13.90
2010,07,11,04,37,13.90
2010,07,11,04,38,13.90
2010,07,11,04,39,13.90
2010,07,11,04,40,13.90
2010,07,11,04,41,13.80
2010,07,11,04,42,13.80
2010,07,11,04,43,13.80
2010,07,11,04,44,13.80
2010,07,11,04,45,13.80
2010,07,11,04,46,13.80
2010,07,11,04,47,13.80
2010,07,11,04,48,13.80
2010,07,11,04,49,13.80
2010,07,11,04,50,13.80
2010,07,11,04,51,13.80
2010,07,11,04,52,13.80
2010,07,11,04,53,13.70
2010,07,11,04,54,13.70
2010,07,11,04,55,13.70
2010,07,11,04,56,13.70
2010,07,11,04,57,13.70
2010,07,11,04,58,13.70
2010,07,11,04,59,13.70
2010,07,11,05,00,13.60
2010,07,11,05,01,13.60
2010,07,11,05,02,13.60
2010,07,11,05,03,13.60
2010,07,11,05,04,13.60
2010,07,11,05,05,13.60
2010,07,11,05,06,13.60
2010,07,11,05,07,13.60
2010,07,11,05,08,13.60
2010,07,11,05,09,13.60
2010,07,11,05,10,13.60
2010,07,11,05,11,13.50
2010,07,11,05,12,13.50
2010,07,11,05,13,13.50
2010,07,11,05,14,13.50
2010,07,11,05,15,13.50
2010,07,11,05,16,13.50
2010,07,11,05,17,13.50
2010,07,11,05,18,13.50
2010,07,11,05,19,13.50
2010,07,11,05,20,13.50
2010,07,11,05,21,13.50
2010,07,11,05,22,13.50
2010,07,11,05,23,13.40
2010,07,11,05,24,13.40
2010,07,11,05,25,13.40
2010,07,11,05,26,13.40
2010,07,11,05,27,13.40
2010,07,11,05,28,13.40
2010,07,11,05,29,13.40
2010,07,11,05,30,13.40
2010,07,11,05,31,13.40
2010,07,11,05,32,13.40
2010,07,11,05,33,13.40
2010,07,11,05,34,13.40
2010,07,11,05,35,13.40
2010,07,11,05,36,13.40
2010,07,11,05,37,13.40
2010,07,11,05,38,13.40
2010,07,11,05,39,13.40
2010,07,11,05,40,13.40
2010,07,11,05,41,13.40
2010,07,11,05,42,13.40
2010,07,11,05,43,13.40
2010,07,11,05,44,13.40
2010,07,11,05,45,13.40
2010,07,11,05,46,13.40
2010,07,11,05,47,13.40
2010,07,11,05,48,13.40
2010,07,11,05,49,13.40
2010,07,11,05,50,13.40
2010,07,11,05,51,13.40
2010,07,11,05,52,13.30
2010,07,11,05,53,13.30
2010,07,11,05,54,13.30
2010,07,11,05,55,13.30
2010,07,11,05,56,13.30
2010,07,11,05,57,13.30
2010,07,11,05,58,13.30
2010,07,11,05,59,13.30
2010,07,11,06,00,13.30
2010,07,11,06,01,13.30
2010,07,11,06,02,13.30
2010,07,11,06,03,13.30
2010,07,11,06,04,13.30
2010,07,11,06,05,13.30
2010,07,11,06,06,13.30
2010,07,11,06,07,13.30
2010,07,11,06,08,13.30
2010,07,11,06,09,13.30
2010,07,11,06,10,13.30
2010,07,11,06,11,13.30
2010,07,11,06,12,13.30
2010,07,11,06,13,13.30
2010,07,11,06,14,13.30
2010,07,11,06,15,13.30
2010,07,11,06,16,13.30
2010,07,11,06,17,13.30
2010,07,11,06,18,13.30
2010,07,11,06,19,13.30
2010,07,11,06,20,13.30
2010,07,11,06,21,13.30
2010,07,11,06,22,13.30
2010,07,11,06,23,13.30
2010,07,11,06,24,13.30
2010,07,11,06,25,13.30
2010,07,11,06,26,13.30
2010,07,11,06,27,13.30
2010,07,11,06,28,13.30
2010,07,11,06,29,13.30
2010,07,11,06,30,13.40
2010,07,11,06,31,13.40
2010,07,11,06,32,13.40
2010,07,11,06,33,13.40
2010,07,11,06,34,13.40
2010,07,11,06,35,13.40
2010,07,11,06,36,13.50
2010,07,11,06,37,13.50
2010,07,11,06,38,13.50
2010,07,11,06,39,13.50
2010,07,11,06,40,13.60
2010,07,11,06,41,13.60
2010,07,11,06,42,13.60
2010,07,11,06,43,13.60
2010,07,11,06,44,13.60
2010,07,11,06,45,13.60
2010,07,11,06,46,13.60
2010,07,11,06,47,13.70
2010,07,11,06,48,13.70
2010,07,11,06,49,13.70
2010,07,11,06,50,13.70
2010,07,11,06,51,13.70
2010,07,11,06,52,13.70
2010,07,11,06,53,13.80
2010,07,11,06,54,13.80
2010,07,11,06,55,13.80
2010,07,11,06,56,13.80
2010,07,11,06,57,13.80
2010,07,11,06,58,13.80
2010,07,11,06,59,13.90
2010,07,11,07,00,13.90
2010,07,11,07,01,13.90
2010,07,11,07,02,13.90
2010,07,11,07,03,13.90
2010,07,11,07,04,14.00
2010,07,11,07,05,14.00
2010,07,11,07,06,14.10
2010,07,11,07,07,14.10
2010,07,11,07,08,14.10
2010,07,11,07,09,14.10
2010,07,11,07,10,14.20
2010,07,11,07,11,14.20
2010,07,11,07,12,14.20
2010,07,11,07,13,14.30
2010,07,11,07,14,14.30
2010,07,11,07,15,14.30
2010,07,11,07,16,14.40
2010,07,11,07,17,14.40
2010,07,11,07,18,14.40
2010,07,11,07,19,14.50
2010,07,11,07,20,14.50
2010,07,11,07,21,14.50
2010,07,11,07,22,14.60
2010,07,11,07,23,14.60
2010,07,11,07,24,14.60
2010,07,11,07,25,14.70
2010,07,11,07,26,14.70
2010,07,11,07,27,14.70
2010,07,11,07,28,14.70
2010,07,11,07,29,14.70
2010,07,11,07,30,14.80
2010,07,11,07,31,14.80
2010,07,11,07,32,14.80
2010,07,11,07,33,14.80
2010,07,11,07,34,14.90
2010,07,11,07,35,14.90
2010,07,11,07,36,14.90
2010,07,11,07,37,14.90
2010,07,11,07,38,14.90
2010,07,11,07,39,15.00
2010,07,11,07,40,15.00
2010,07,11,07,41,15.00
2010,07,11,07,42,15.00
2010,07,11,07,43,15.10
2010,07,11,07,44,15.10
2010,07,11,07,45,15.10
2010,07,11,07,46,15.10
2010,07,11,07,47,15.10
2010,07,11,07,48,15.20
2010,07,11,07,49,15.20
2010,07,11,07,50,15.20
2010,07,11,07,51,15.20
2010,07,11,07,52,15.30
2010,07,11,07,53,15.30
2010,07,11,07,54,15.30
2010,07,11,07,55,15.30
2010,07,11,07,56,15.40
2010,07,11,07,57,15.40
2010,07,11,07,58,15.40
2010,07,11,07,59,15.50
2010,07,11,08,00,15.50
2010,07,11,08,01,15.50
2010,07,11,08,02,15.60
2010,07,11,08,03,15.60
2010,07,11,08,04,15.60
2010,07,11,08,05,15.70
2010,07,11,08,06,15.70
2010,07,11,08,07,15.70
2010,07,11,08,08,15.70
2010,07,11,08,09,15.70
2010,07,11,08,10,15.70
2010,07,11,08,11,15.80
2010,07,11,08,12,15.80
2010,07,11,08,13,15.80
2010,07,11,08,14,15.80
2010,07,11,08,15,15.80
2010,07,11,08,16,15.80
2010,07,11,08,17,15.80
2010,07,11,08,18,15.80
2010,07,11,08,19,15.80
2010,07,11,08,20,15.80
2010,07,11,08,21,15.80
2010,07,11,08,22,15.80
2010,07,11,08,23,15.80
2010,07,11,08,24,15.80
2010,07,11,08,25,15.80
2010,07,11,08,26,15.90
2010,07,11,08,27,15.90
2010,07,11,08,28,15.90
2010,07,11,08,29,16.00
2010,07,11,08,30,16.00
2010,07,11,08,31,16.10
2010,07,11,08,32,16.10
2010,07,11,08,33,16.20
2010,07,11,08,34,16.20
2010,07,11,08,35,16.30
2010,07,11,08,36,16.30
2010,07,11,08,37,16.30
2010,07,11,08,38,16.40
2010,07,11,08,39,16.40
2010,07,11,08,40,16.40
2010,07,11,08,41,16.50
2010,07,11,08,42,16.50
2010,07,11,08,43,16.50
2010,07,11,08,44,16.60
2010,07,11,08,45,16.60
2010,07,11,08,46,16.60
2010,07,11,08,47,16.60
2010,07,11,08,48,16.60
2010,07,11,08,49,16.60
2010,07,11,08,50,16.70
2010,07,11,08,51,16.70
2010,07,11,08,52,16.70
2010,07,11,08,53,16.70
2010,07,11,08,54,16.80
2010,07,11,08,55,16.80
2010,07,11,08,56,16.90
2010,07,11,08,57,16.90
2010,07,11,08,58,17.00
2010,07,11,08,59,17.00
2010,07,11,09,00,17.10
2010,07,11,09,01,17.10
2010,07,11,09,02,17.10
2010,07,11,09,03,17.10
2010,07,11,09,04,17.10
2010,07,11,09,05,17.10
2010,07,11,09,06,17.10
2010,07,11,09,07,17.10
2010,07,11,09,08,17.10
2010,07,11,09,09,17.10
2010,07,11,09,10,17.10
2010,07,11,09,11,17.20
2010,07,11,09,12,17.20
2010,07,11,09,13,17.30
2010,07,11,09,14,17.30
2010,07,11,09,15,17.30
2010,07,11,09,16,17.30
2010,07,11,09,17,17.40
2010,07,11,09,18,17.40
2010,07,11,09,19,17.40
2010,07,11,09,20,17.40
2010,07,11,09,21,17.40
2010,07,11,09,22,17.50
2010,07,11,09,23,17.50
2010,07,11,09,24,17.50
2010,07,11,09,25,17.60
2010,07,11,09,26,17.60
2010,07,11,09,27,17.70
2010,07,11,09,28,17.70
2010,07,11,09,29,17.70
2010,07,11,09,30,17.80
2010,07,11,09,31,17.80
2010,07,11,09,32,17.80
2010,07,11,09,33,17.80
2010,07,11,09,34,17.80
2010,07,11,09,35,17.90
2010,07,11,09,36,17.90
2010,07,11,09,37,17.90
2010,07,11,09,38,17.90
2010,07,11,09,39,18.00
2010,07,11,09,40,18.00
2010,07,11,09,41,18.10
2010,07,11,09,42,18.10
2010,07,11,09,43,18.10
2010,07,11,09,44,18.20
2010,07,11,09,45,18.20
2010,07,11,09,46,18.20
2010,07,11,09,47,18.20
2010,07,11,09,48,18.20
2010,07,11,09,49,18.20
2010,07,11,09,50,18.20
2010,07,11,09,51,18.20
2010,07,11,09,52,18.20
2010,07,11,09,53,18.30
2010,07,11,09,54,18.30
2010,07,11,09,55,18.40
2010,07,11,09,56,18.40
2010,07,11,09,57,18.40
2010,07,11,09,58,18.40
2010,07,11,09,59,18.40
2010,07,11,10,00,18.40
2010,07,11,10,01,18.40
2010,07,11,10,02,18.30
2010,07,11,10,03,18.30
2010,07,11,10,04,18.20
2010,07,11,10,05,18.20
2010,07,11,10,06,18.20
2010,07,11,10,07,18.20
2010,07,11,10,08,18.20
2010,07,11,10,09,18.20
2010,07,11,10,10,18.20
2010,07,11,10,11,18.30
2010,07,11,10,12,18.30
2010,07,11,10,13,18.40
2010,07,11,10,14,18.40
2010,07,11,10,15,18.50
2010,07,11,10,16,18.60
2010,07,11,10,17,18.60
2010,07,11,10,18,18.60
2010,07,11,10,19,18.60
2010,07,11,10,20,18.60
2010,07,11,10,21,18.60
2010,07,11,10,22,18.60
2010,07,11,10,23,18.60
2010,07,11,10,24,18.50
2010,07,11,10,25,18.50
2010,07,11,10,26,18.40
2010,07,11,10,27,18.40
2010,07,11,10,28,18.30
2010,07,11,10,29,18.30
2010,07,11,10,30,18.20
2010,07,11,10,31,18.10
2010,07,11,10,32,18.00
2010,07,11,10,33,17.90
2010,07,11,10,34,17.80
2010,07,11,10,35,17.80
2010,07,11,10,36,17.80
2010,07,11,10,37,17.70
2010,07,11,10,38,17.70
2010,07,11,10,39,17.70
2010,07,11,10,40,17.70
2010,07,11,10,41,17.60
2010,07,11,10,42,17.60
2010,07,11,10,43,17.60
2010,07,11,10,44,17.60
2010,07,11,10,45,17.60
2010,07,11,10,46,17.70
2010,07,11,10,47,17.70
2010,07,11,10,48,17.70
2010,07,11,10,49,17.70
2010,07,11,10,50,17.70
2010,07,11,10,51,17.70
2010,07,11,10,52,17.70
2010,07,11,10,53,17.70
2010,07,11,10,54,17.70
2010,07,11,10,55,17.70
2010,07,11,10,56,17.70
2010,07,11,10,57,17.80
2010,07,11,10,58,17.80
2010,07,11,10,59,17.90
2010,07,11,11,00,18.00
2010,07,11,11,01,18.00
2010,07,11,11,02,18.00
2010,07,11,11,03,18.00
2010,07,11,11,04,18.00
2010,07,11,11,05,18.00
2010,07,11,11,06,18.10
2010,07,11,11,07,18.10
2010,07,11,11,08,18.10
2010,07,11,11,09,18.20
2010,07,11,11,10,18.20
2010,07,11,11,11,18.30
2010,07,11,11,12,18.30
2010,07,11,11,13,18.40
2010,07,11,11,14,18.40
2010,07,11,11,15,18.40
2010,07,11,11,16,18.50
2010,07,11,11,17,18.50
2010,07,11,11,18,18.60
2010,07,11,11,19,18.60
2010,07,11,11,20,18.70
2010,07,11,11,21,18.70
2010,07,11,11,22,18.70
2010,07,11,11,23,18.70
2010,07,11,11,24,18.70
2010,07,11,11,25,18.60
2010,07,11,11,26,18.60
2010,07,11,11,27,18.60
2010,07,11,11,28,18.50
2010,07,11,11,29,18.50
2010,07,11,11,30,18.60
2010,07,11,11,31,18.60
2010,07,11,11,32,18.60
2010,07,11,11,33,18.60
2010,07,11,11,34,18.70
2010,07,11,11,35,18.70
2010,07,11,11,36,18.70
2010,07,11,11,37,18.60
2010,07,11,11,38,18.60
2010,07,11,11,39,18.60
2010,07,11,11,40,18.50
2010,07,11,11,41,18.50
2010,07,11,11,42,18.50
2010,07,11,11,43,18.50
2010,07,11,11,44,18.60
2010,07,11,11,45,18.60
2010,07,11,11,46,18.60
2010,07,11,11,47,18.60
2010,07,11,11,48,18.60
2010,07,11,11,49,18.60
2010,07,11,11,50,18.70
2010,07,11,11,51,18.70
2010,07,11,11,52,18.80
2010,07,11,11,53,18.80
2010,07,11,11,54,18.80
2010,07,11,11,55,18.70
2010,07,11,11,56,18.70
2010,07,11,11,57,18.70
2010,07,11,11,58,18.60
2010,07,11,11,59,18.60
2010,07,11,12,00,18.60
2010,07,11,12,01,18.50
2010,07,11,12,02,18.40
2010,07,11,12,03,18.30
2010,07,11,12,04,18.30
2010,07,11,12,05,18.30
2010,07,11,12,06,18.30
2010,07,11,12,07,18.20
2010,07,11,12,08,18.30
2010,07,11,12,09,18.20
2010,07,11,12,10,18.20
2010,07,11,12,11,18.20
2010,07,11,12,12,18.20
2010,07,11,12,13,18.20
2010,07,11,12,14,18.30
2010,07,11,12,15,18.40
2010,07,11,12,16,18.50
2010,07,11,12,17,18.60
2010,07,11,12,18,18.60
2010,07,11,12,19,18.70
2010,07,11,12,20,18.70
2010,07,11,12,21,18.70
2010,07,11,12,22,18.80
2010,07,11,12,23,18.90
2010,07,11,12,24,19.00
2010,07,11,12,25,19.10
2010,07,11,12,26,19.20
2010,07,11,12,27,19.30
2010,07,11,12,28,19.30
2010,07,11,12,29,19.40
2010,07,11,12,30,19.40
2010,07,11,12,31,19.30
2010,07,11,12,32,19.30
2010,07,11,12,33,19.30
2010,07,11,12,34,19.30
2010,07,11,12,35,19.30
2010,07,11,12,36,19.30
2010,07,11,12,37,19.30
2010,07,11,12,38,19.30
2010,07,11,12,39,19.30
2010,07,11,12,40,19.30
2010,07,11,12,41,19.30
2010,07,11,12,42,19.20
2010,07,11,12,43,19.10
2010,07,11,12,44,19.00
2010,07,11,12,45,18.90
2010,07,11,12,46,18.80
2010,07,11,12,47,18.70
2010,07,11,12,48,18.70
2010,07,11,12,49,18.70
2010,07,11,12,50,18.60
2010,07,11,12,51,18.70
2010,07,11,12,52,18.70
2010,07,11,12,53,18.60
2010,07,11,12,54,18.70
2010,07,11,12,55,18.70
2010,07,11,12,56,18.70
2010,07,11,12,57,18.70
2010,07,11,12,58,18.80
2010,07,11,12,59,18.90
2010,07,11,13,00,19.00
2010,07,11,13,01,19.00
2010,07,11,13,02,19.10
2010,07,11,13,03,19.10
2010,07,11,13,04,19.20
2010,07,11,13,05,19.20
2010,07,11,13,06,19.30
2010,07,11,13,07,19.30
2010,07,11,13,08,19.30
2010,07,11,13,09,19.30
2010,07,11,13,10,19.30
2010,07,11,13,11,19.30
2010,07,11,13,12,19.30
2010,07,11,13,13,19.20
2010,07,11,13,14,19.30
2010,07,11,13,15,19.30
2010,07,11,13,16,19.30
2010,07,11,13,17,19.30
2010,07,11,13,18,19.30
2010,07,11,13,19,19.30
2010,07,11,13,20,19.40
2010,07,11,13,21,19.40
2010,07,11,13,22,19.40
2010,07,11,13,23,19.40
2010,07,11,13,24,19.40
2010,07,11,13,25,19.50
2010,07,11,13,26,19.60
2010,07,11,13,27,19.70
2010,07,11,13,28,19.80
2010,07,11,13,29,19.80
2010,07,11,13,30,19.90
2010,07,11,13,31,19.90
2010,07,11,13,32,20.00
2010,07,11,13,33,20.00
2010,07,11,13,34,20.00
2010,07,11,13,35,20.10
2010,07,11,13,36,20.10
2010,07,11,13,37,20.10
2010,07,11,13,38,20.10
2010,07,11,13,39,20.10
2010,07,11,13,40,20.10
2010,07,11,13,41,20.10
2010,07,11,13,42,20.10
2010,07,11,13,43,20.10
2010,07,11,13,44,20.20
2010,07,11,13,45,20.20
2010,07,11,13,46,20.20
2010,07,11,13,47,20.20
2010,07,11,13,48,20.20
2010,07,11,13,49,20.20
2010,07,11,13,50,20.20
2010,07,11,13,51,20.20
2010,07,11,13,52,20.10
2010,07,11,13,53,20.10
2010,07,11,13,54,20.10
2010,07,11,13,55,20.00
2010,07,11,13,56,19.90
2010,07,11,13,57,19.90
2010,07,11,13,58,19.80
2010,07,11,13,59,19.80
2010,07,11,14,00,19.70
2010,07,11,14,01,19.70
2010,07,11,14,02,19.60
2010,07,11,14,03,19.60
2010,07,11,14,04,19.60
2010,07,11,14,05,19.60
2010,07,11,14,06,19.60
2010,07,11,14,07,19.60
2010,07,11,14,08,19.70
2010,07,11,14,09,19.80
2010,07,11,14,10,19.80
2010,07,11,14,11,19.90
2010,07,11,14,12,19.90
2010,07,11,14,13,19.90
2010,07,11,14,14,19.80
2010,07,11,14,15,19.80
2010,07,11,14,16,19.80
2010,07,11,14,17,19.90
2010,07,11,14,18,19.90
2010,07,11,14,19,20.00
2010,07,11,14,20,20.10
2010,07,11,14,21,20.10
2010,07,11,14,22,20.20
2010,07,11,14,23,20.30
2010,07,11,14,24,20.40
2010,07,11,14,25,20.60
2010,07,11,14,26,20.70
2010,07,11,14,27,20.80
2010,07,11,14,28,20.90
2010,07,11,14,29,20.90
2010,07,11,14,30,20.90
2010,07,11,14,31,21.00
2010,07,11,14,32,21.00
2010,07,11,14,33,21.10
2010,07,11,14,34,21.10
2010,07,11,14,35,21.10
2010,07,11,14,36,21.10
2010,07,11,14,37,21.10
2010,07,11,14,38,21.10
2010,07,11,14,39,21.20
2010,07,11,14,40,21.30
2010,07,11,14,41,21.40
2010,07,11,14,42,21.60
2010,07,11,14,43,21.80
2010,07,11,14,44,21.90
2010,07,11,14,45,22.00
2010,07,11,14,46,22.10
2010,07,11,14,47,22.00
2010,07,11,14,48,22.00
2010,07,11,14,49,21.90
2010,07,11,14,50,21.80
2010,07,11,14,51,21.80
2010,07,11,14,52,21.70
2010,07,11,14,53,21.60
2010,07,11,14,54,21.50
2010,07,11,14,55,21.50
2010,07,11,14,56,21.40
2010,07,11,14,57,21.30
2010,07,11,14,58,21.30
2010,07,11,14,59,21.20
2010,07,11,15,00,21.10
2010,07,11,15,01,21.10
2010,07,11,15,02,21.10
2010,07,11,15,03,21.10
2010,07,11,15,04,21.00
2010,07,11,15,05,21.00
2010,07,11,15,06,20.90
2010,07,11,15,07,20.90
2010,07,11,15,08,20.90
2010,07,11,15,09,20.90
2010,07,11,15,10,20.90
2010,07,11,15,11,20.90
2010,07,11,15,12,21.00
2010,07,11,15,13,21.00
2010,07,11,15,14,21.10
2010,07,11,15,15,21.10
2010,07,11,15,16,21.20
2010,07,11,15,17,21.30
2010,07,11,15,18,21.40
2010,07,11,15,19,21.50
2010,07,11,15,20,21.50
2010,07,11,15,21,21.50
2010,07,11,15,22,21.60
2010,07,11,15,23,21.70
2010,07,11,15,24,21.80
2010,07,11,15,25,22.00
2010,07,11,15,26,22.10
2010,07,11,15,27,22.20
2010,07,11,15,28,22.30
2010,07,11,15,29,22.40
2010,07,11,15,30,22.50
2010,07,11,15,31,22.60
2010,07,11,15,32,22.70
2010,07,11,15,33,22.80
2010,07,11,15,34,22.90
2010,07,11,15,35,22.90
2010,07,11,15,36,23.00
2010,07,11,15,37,23.10
2010,07,11,15,38,23.10
2010,07,11,15,39,23.10
2010,07,11,15,40,23.10
2010,07,11,15,41,23.00
2010,07,11,15,42,23.00
2010,07,11,15,43,22.80
2010,07,11,15,44,22.70
2010,07,11,15,45,22.50
2010,07,11,15,46,22.30
2010,07,11,15,47,22.20
2010,07,11,15,48,22.00
2010,07,11,15,49,21.80
2010,07,11,15,50,21.70
2010,07,11,15,51,21.60
2010,07,11,15,52,21.50
2010,07,11,15,53,21.50
2010,07,11,15,54,21.40
2010,07,11,15,55,21.40
2010,07,11,15,56,21.50
2010,07,11,15,57,21.50
2010,07,11,15,58,21.60
2010,07,11,15,59,21.80
2010,07,11,16,00,21.90
2010,07,11,16,01,22.00
2010,07,11,16,02,22.10
2010,07,11,16,03,22.20
2010,07,11,16,04,22.10
2010,07,11,16,05,22.10
2010,07,11,16,06,22.10
2010,07,11,16,07,22.10
2010,07,11,16,08,22.10
2010,07,11,16,09,22.20
2010,07,11,16,10,22.30
2010,07,11,16,11,22.40
2010,07,11,16,12,22.50
2010,07,11,16,13,22.60
2010,07,11,16,14,22.70
2010,07,11,16,15,22.70
2010,07,11,16,16,22.80
2010,07,11,16,17,22.90
2010,07,11,16,18,23.00
2010,07,11,16,19,23.10
2010,07,11,16,20,23.20
2010,07,11,16,21,23.30
2010,07,11,16,22,23.40
2010,07,11,16,23,23.50
2010,07,11,16,24,23.60
2010,07,11,16,25,23.60
2010,07,11,16,26,23.60
2010,07,11,16,27,23.60
2010,07,11,16,28,23.60
2010,07,11,16,29,23.50
2010,07,11,16,30,23.40
2010,07,11,16,31,23.40
2010,07,11,16,32,23.40
2010,07,11,16,33,23.30
2010,07,11,16,34,23.30
2010,07,11,16,35,23.30
2010,07,11,16,36,23.30
2010,07,11,16,37,23.30
2010,07,11,16,38,23.30
2010,07,11,16,39,23.30
2010,07,11,16,40,23.30
2010,07,11,16,41,23.30
2010,07,11,16,42,23.30
2010,07,11,16,43,23.30
2010,07,11,16,44,23.30
2010,07,11,16,45,23.30
2010,07,11,16,46,23.40
2010,07,11,16,47,23.40
2010,07,11,16,48,23.30
2010,07,11,16,49,23.30
2010,07,11,16,50,23.30
2010,07,11,16,51,23.30
2010,07,11,16,52,23.30
2010,07,11,16,53,23.30
2010,07,11,16,54,23.30
2010,07,11,16,55,23.30
2010,07,11,16,56,23.30
2010,07,11,16,57,23.30
2010,07,11,16,58,23.40
2010,07,11,16,59,23.40
2010,07,11,17,00,23.40
2010,07,11,17,01,23.50
2010,07,11,17,02,23.50
2010,07,11,17,03,23.60
2010,07,11,17,04,23.70
2010,07,11,17,05,23.70
2010,07,11,17,06,23.70
2010,07,11,17,07,23.70
2010,07,11,17,08,23.70
2010,07,11,17,09,23.70
2010,07,11,17,10,23.70
2010,07,11,17,11,23.70
2010,07,11,17,12,23.70
2010,07,11,17,13,23.60
2010,07,11,17,14,23.60
2010,07,11,17,15,23.60
2010,07,11,17,16,23.60
2010,07,11,17,17,23.60
2010,07,11,17,18,23.50
2010,07,11,17,19,23.50